Simultaneous Nadir Overpasses (SNOs) Predictions

Prediction of SNOs between GOES-16 and METOP-B Satellite Orbit:

Table of predicted SNOs for the next 14.0 days since TLE Epoch: 12/1/2024
Index Date Time (GOES-16) GOES-16 Lat,Lon METOP-B Lat,Lon Distance(km) Time Diff (sec)
1 12/01/2024 14:08:22 -0.04, -75.21 -0.40, -73.54 190.73 80
2 12/03/2024 02:29:52 0.03, -75.19 -0.64, -78.10 332.81 80
3 12/04/2024 02:09:06 0.03, -75.19 0.49, -73.10 238.63 80
4 12/05/2024 14:27:49 -0.02, -75.22 0.50, -77.64 275.11 80
5 12/06/2024 14:04:22 -0.02, -75.23 -0.58, -72.62 296.69 80
6 12/08/2024 02:25:53 0.02, -75.21 -0.43, -77.19 225.72 80
7 12/09/2024 02:02:26 0.02, -75.22 0.66, -72.17 346.58 80
8 12/10/2024 14:23:48 -0.01, -75.26 0.31, -76.72 165.85 80
9 12/11/2024 14:00:22 -0.01, -75.27 -0.79, -71.70 406.73 80
10 12/13/2024 02:21:52 0.01, -75.27 -0.19, -76.28 114.70 80
11 12/14/2024 01:58:26 0.00, -75.28 0.92, -71.26 458.17 80
